THORAD AGENA D DEB

Satellite information

Favourite Embed

Satellite Type and Status

DEBRISIN ORBIT

Key statistics

Satellite THORAD AGENA D DEB at a glance.

Uptime

20180

Days in orbit

Revolutions

≈ 13.9

Per day

Orbit

SSO

Sun Synchronous Orbit

Inclination

100.1

Latest

Satellite identification and parameters

Extended collection of information and parameters for THORAD AGENA D DEB.

Object identification

Identified? True

Debris? True

Object name: THORAD AGENA D DEB

International designator: 1970-025S

Object number (NORAD): 4614

Object ID (CCSDS): 4614

Country: UNITED STATES OF AMERICA (US)

Current information (Y/N): Y

RCS size: MEDIUM

Orbital parameters

Period: 103.462 minutes

Inclination: 100.102 deg

SMA: 7300.431 km

Apoapsis: 978.985 km

Periapsis: 865.608 km

RAAN: 176.7235 deg

Eccentricy: 0.0077651

Argument of periapsis: 294.8488 deg

Mean anomaly: 64.4608 deg

Mean motion: 13.91810123 rev/day

Mean motion (dot): 0.00000422 rev/day2

B* drag term: 0.00036392 1/REarth

Two-line elements (TLE)

Creation date: July 8, 2025, 2:27 a.m.

Reference frame: TEME

Reference center: EARTH

Epoch: July 7, 2025, 10:08 p.m. UTC

TLE line 0: 0 THORAD AGENA D DEB

TLE line 1: 1 04614U 70025S 25188.92249036 .00000422 00000-0 36392-3 0 9992

TLE line 2: 2 04614 100.1020 176.7235 0077651 294.8488 64.4608 13.91810123778651

Live tracking on map

Real-time ground track for satellite THORAD AGENA D DEB.

In-orbit conjunctions

A list of the most updated potential collisions computed for object THORAD AGENA D DEB.

Target Orbit TCA Probability of collision Miss distance Type
TEMISAT LEO 2025-06-16 02:07:45 0.0007381063 765.0 (m) PAYLOAD
COSMOS 375 DEB LEO 2024-12-11 05:37:19 0.0001156645 138.0 (m) DEBRIS
COSMOS 1375 DEB LEO 2024-06-08 03:58:30 0.0002742046 184.0 (m) DEBRIS

Associated space launch

Meteorological research and development satellite

THORAD AGENA D DEB was lifted into orbit during the mission ‘Thorad SLV-2G Agena D | Nimbus 4’, on board a Thorad SLV-2G Agena D space rocket.

The launch took place on April 8, 1970, 8:17 a.m. from Space Launch Complex 2E.

For more information about the launch, click the button.

Launch to space Thorad SLV-2G Agena D | Nimbus 4
Thorad SLV-2G Agena D | Nimbus 4

Agency: N/A

Status: Launch Successful

Launch date: April 8, 1970, 8:17 a.m. UTC

Rocket: Thorad SLV-2G Agena D

Launch pad: Space Launch Complex 2E

Location: Vandenberg SFB, CA, USA

...

Latest news about this satellite

There are no fresh news available about this satellite. Check back as we update our databases every day.


Newsletter sign-up

Weekly statistics, charts and insights to help you stay on top of the space industry.